GFSNIL_sfc_thetae_033.txt.gz
Theta_e
295 296 297 297 298 298 298 299 300 299 299 298 298 297 297 296 296 295 295 294 295 294
293 293 293 294 296 296 297 297 298 299 298 297 296 296 296 295 294 294 294 294 294 294
291 292 292 293 293 293 294 295 295 295 296 297 296 295 294 293 293 293 293 293 292 293
289 290 290 290 290 291 292 292 292 293 293 294 294 294 294 293 293 291 291 291 291 291
287 288 288 288 288 288 288 289 290 291 290 291 292 292 292 291 291 291 290 290 289 289
285 286 286 286 286 286 286 287 288 288 289 289 289 290 291 291 290 290 290 290 289 288
284 284 285 286 285 284 285 285 286 287 287 287 288 287 288 288 288 289 289 289 289 289
283 284 284 284 283 282 282 283 284 285 286 286 286 286 286 287 287 287 287 288 288 288
282 282 282 282 282 281 281 281 283 284 284 284 284 287 288 288 286 286 285 285 287 287
281 281 281 280 280 279 279 280 280 282 283 282 283 286 287 288 286 286 285 285 285 285
281 280 280 279 278 278 278 278 278 279 281 280 280 284 286 287 286 286 285 285 285 284
280 279 278 276 276 277 276 276 276 277 277 277 278 283 284 285 285 284 284 285 286 285
278 277 276 276 275 276 275 275 275 275 275 276 276 280 282 283 283 283 284 284 285 285
275 274 274 274 274 273 272 272 271 271 272 273 275 276 281 283 282 282 283 283 284 285

GFSNIL_sfc_thetae_036.txt.gz
Theta_e
290 290 290 290 290 291 292 292 293 293 293 294 294 294 292 290 289 289 291 289 288 290
288 288 288 288 289 289 289 291 291 291 290 291 292 292 291 289 288 289 288 291 290 289
286 287 286 286 285 285 286 288 288 288 288 289 290 290 289 288 288 287 288 289 288 289
286 286 286 285 284 283 284 284 285 286 286 287 287 287 287 287 287 286 287 287 287 288
284 284 284 284 284 282 283 283 283 284 284 285 285 285 285 285 287 286 286 286 286 287
281 281 281 282 283 282 282 281 282 282 282 283 283 283 284 284 285 286 286 286 286 286
280 280 280 281 281 281 280 279 280 280 282 282 283 283 283 284 283 284 286 286 286 286
279 280 279 279 280 280 279 278 279 279 280 281 282 282 282 282 283 283 284 285 285 286
279 280 280 279 279 279 279 278 278 278 278 279 280 285 286 286 283 284 284 283 284 285
279 278 279 279 279 278 277 277 277 277 277 277 278 283 285 285 282 282 283 283 284 284
278 277 278 278 277 277 277 276 276 276 276 276 276 281 282 283 280 281 282 283 283 283
276 275 276 275 275 276 275 275 274 275 274 274 274 279 279 279 277 278 279 281 283 283
273 272 271 272 272 272 272 273 273 273 273 273 272 276 277 277 275 274 277 279 281 284
269 267 267 267 267 267 267 268 267 268 269 269 270 270 274 275 273 274 275 276 279 281

GFSNIL_sfc_thetae_042.txt.gz
Theta_e
285 285 284 283 283 283 283 284 284 285 285 285 286 287 288 287 286 287 286 287 287 289
285 285 284 284 285 284 283 284 284 284 284 284 284 285 285 284 285 285 285 286 286 286
282 284 283 282 283 283 283 283 282 282 282 283 284 283 283 283 283 283 284 286 285 285
282 282 282 280 281 280 281 282 281 280 281 281 282 282 281 281 282 282 282 283 283 284
281 282 280 280 280 280 280 281 281 280 280 279 279 280 280 280 280 280 280 281 282 283
279 280 280 280 280 280 279 280 280 280 279 279 279 278 279 279 279 280 280 281 281 281
278 278 278 279 279 278 279 278 278 278 278 279 279 279 278 278 278 279 279 280 281 282
278 278 278 278 278 277 278 278 278 278 278 278 278 278 277 278 278 278 278 279 280 281
278 278 277 277 277 277 276 276 276 276 276 275 277 280 281 280 278 278 277 277 278 279
276 275 275 275 274 273 272 273 272 273 273 273 273 277 278 278 277 276 276 276 277 277
273 271 272 271 270 270 270 269 269 269 269 269 270 274 275 275 273 272 273 274 275 275
270 268 269 267 267 268 267 266 266 267 266 266 266 270 272 272 269 270 270 271 272 272
268 263 265 265 264 265 264 265 265 265 265 264 263 268 270 271 269 267 268 270 271 273
266 264 263 263 263 262 262 263 261 262 262 263 264 264 269 271 269 268 267 268 269 271

GFSNIL_sfc_thetae_045.txt.gz
Theta_e
283 283 282 282 282 282 282 283 283 283 284 284 284 284 284 285 285 285 286 286 286 287
282 283 283 283 283 283 283 283 283 283 282 282 283 283 283 282 282 283 284 284 285 286
280 280 280 280 280 280 280 281 281 280 281 281 281 281 281 280 281 282 282 282 283 284
280 280 279 279 279 279 279 280 280 279 279 279 279 279 278 278 279 279 280 281 280 280
279 279 279 279 279 279 278 279 279 279 279 279 279 278 277 276 277 277 278 278 279 280
279 278 278 278 279 278 278 278 278 278 278 278 278 278 278 277 277 277 277 277 278 279
278 278 278 278 278 277 277 277 277 277 277 278 277 277 277 277 277 276 277 278 278 278
278 278 277 277 277 277 277 276 276 275 275 275 275 276 276 277 277 277 277 277 278 278
277 277 276 276 275 274 273 272 272 272 272 272 273 276 277 276 274 275 275 275 276 277
274 273 273 272 271 271 270 270 270 270 269 269 269 273 275 275 273 272 272 272 273 273
271 269 270 269 269 268 268 268 267 267 267 267 268 272 273 273 271 270 270 270 271 271
268 266 267 265 266 266 266 265 264 266 265 264 265 269 271 271 269 269 269 270 270 270
267 262 262 264 264 264 263 264 264 264 264 263 262 267 270 270 269 267 268 269 270 272
265 262 262 261 262 261 261 262 261 261 262 262 263 264 269 271 269 268 267 268 269 270